Location: Cabeza de los Veneras
(40.2000°N, 5.2000°W)
Time: 11:36:34
(UTC+00:00)

SPOT 5 - Pass Details

Date: 18 April 2024
Orbit: 620 x 810 km, 98.1° (Epoch: 22 May)

Event Time Altitude Azimuth Distance (km) Brightness Sun altitude
Exits shadow 22:05:24 29° 243° (WSW) 1,444 4.4 -29.9°
Maximum altitude 22:06:25 31° 264° (W) 1,381 4.5 -30.0°
Drops below altitude 10° 22:11:05 10° 326° (NW) 2,377 6.4 -30.5°
Sets 22:13:40 0° 337° (NNW) 3,292 7.4 -30.8°
